Time,TemperatureF,DewpointF,PressureIn,WindDirection,WindDirectionDegrees,WindSpeedMPH,WindSpeedGustMPH,Humidity,HourlyPrecipIn,Conditions,Clouds,dailyrainin,SoftwareType,DateUTC
2013-03-26 00:00:00,30.2,7.6,29.99,ESE,113,0.0,0.7,38,0.00,,,0.00,WUHU216HW,2013-03-26 06:00:00,
2013-03-26 00:05:00,30.4,7.8,29.98,ESE,113,0.0,0.7,38,0.00,,,0.00,WUHU216HW,2013-03-26 06:05:00,
2013-03-26 00:10:00,30.4,7.8,29.98,SSE,158,0.0,0.7,38,0.00,,,0.00,WUHU216HW,2013-03-26 06:10:00,
2013-03-26 00:15:00,30.4,7.8,29.98,SSE,158,0.0,0.7,38,0.00,,,0.00,WUHU216HW,2013-03-26 06:15:00,
2013-03-26 00:20:00,30.6,8.6,29.98,NE,45,1.8,1.8,39,0.00,,,0.00,WUHU216HW,2013-03-26 06:20:00,
2013-03-26 00:25:00,30.6,9.6,29.98,NNE,23,1.1,2.9,41,0.00,,,0.00,WUHU216HW,2013-03-26 06:25:00,
2013-03-26 00:30:00,31.0,9.5,29.98,NE,45,1.6,2.9,40,0.00,,,0.00,WUHU216HW,2013-03-26 06:30:00,
2013-03-26 00:35:00,31.1,9.6,29.98,NE,45,2.7,3.1,40,0.00,,,0.00,WUHU216HW,2013-03-26 06:35:00,
2013-03-26 00:41:00,31.3,10.3,29.98,NE,45,2.5,3.1,41,0.00,,,0.00,WUHU216HW,2013-03-26 06:41:00,
2013-03-26 00:46:00,31.3,10.3,29.98,NNE,23,1.8,3.4,41,0.00,,,0.00,WUHU216HW,2013-03-26 06:46:00,
2013-03-26 00:51:00,31.3,10.3,29.98,NE,45,2.9,3.4,41,0.00,,,0.00,WUHU216HW,2013-03-26 06:51:00,
2013-03-26 00:56:00,31.7,10.6,29.98,NE,45,1.8,3.4,41,0.00,,,0.00,WUHU216HW,2013-03-26 06:56:00,
2013-03-26 01:01:00,31.9,10.8,29.98,ESE,113,1.6,2.2,41,0.00,,,0.00,WUHU216HW,2013-03-26 07:01:00,
2013-03-26 01:06:00,32.0,11.0,29.98,East,90,1.3,2.2,41,0.00,,,0.00,WUHU216HW,2013-03-26 07:06:00,
2013-03-26 01:11:00,32.4,11.3,29.98,East,90,1.8,2.7,41,0.00,,,0.00,WUHU216HW,2013-03-26 07:11:00,
2013-03-26 01:16:00,32.6,11.4,29.98,ENE,68,1.1,2.7,41,0.00,,,0.00,WUHU216HW,2013-03-26 07:16:00,
2013-03-26 01:21:00,32.8,11.1,29.98,ENE,68,0.0,2.2,40,0.00,,,0.00,WUHU216HW,2013-03-26 07:21:00,
2013-03-26 01:26:00,32.8,11.1,29.98,ENE,68,0.7,1.1,40,0.00,,,0.00,WUHU216HW,2013-03-26 07:26:00,
2013-03-26 01:31:00,32.6,10.9,29.98,ENE,68,1.3,1.6,40,0.00,,,0.00,WUHU216HW,2013-03-26 07:31:00,
2013-03-26 01:36:00,32.4,11.3,29.98,ENE,68,1.3,1.6,41,0.00,,,0.00,WUHU216HW,2013-03-26 07:36:00,
2013-03-26 01:41:00,32.6,11.4,29.98,ENE,68,3.1,3.1,41,0.00,,,0.00,WUHU216HW,2013-03-26 07:41:00,
2013-03-26 01:46:00,32.6,12.0,29.98,NE,45,1.8,3.1,42,0.00,,,0.00,WUHU216HW,2013-03-26 07:46:00,
2013-03-26 01:51:00,32.6,11.4,29.98,NE,45,2.5,2.7,41,0.00,,,0.00,WUHU216HW,2013-03-26 07:51:00,
2013-03-26 01:56:00,32.6,12.0,29.98,ENE,68,2.2,3.4,42,0.00,,,0.00,WUHU216HW,2013-03-26 07:56:00,
2013-03-26 02:01:00,32.8,12.1,29.98,ENE,68,1.1,3.4,42,0.00,,,0.00,WUHU216HW,2013-03-26 08:01:00,
2013-03-26 02:06:00,32.8,11.6,29.97,ENE,68,1.6,1.8,41,0.00,,,0.00,WUHU216HW,2013-03-26 08:06:00,
2013-03-26 02:11:00,32.6,12.0,29.97,NNE,23,2.5,2.5,42,0.00,,,0.00,WUHU216HW,2013-03-26 08:11:00,
2013-03-26 02:16:00,32.4,11.8,29.97,NE,45,2.7,2.9,42,0.00,,,0.00,WUHU216HW,2013-03-26 08:16:00,
2013-03-26 02:21:00,32.2,11.6,29.97,NE,45,3.1,3.1,42,0.00,,,0.00,WUHU216HW,2013-03-26 08:21:00,
2013-03-26 02:26:00,32.2,12.2,29.97,NE,45,2.0,3.1,43,0.00,,,0.00,WUHU216HW,2013-03-26 08:26:00,
2013-03-26 02:31:00,32.4,12.2,29.97,ENE,68,2.0,3.1,43,0.00,,,0.00,WUHU216HW,2013-03-26 08:31:00,
2013-03-26 02:36:00,32.4,12.2,29.97,NE,45,2.5,2.7,43,0.00,,,0.00,WUHU216HW,2013-03-26 08:36:00,
2013-03-26 02:41:00,32.4,12.8,29.97,ENE,68,1.1,2.7,44,0.00,,,0.00,WUHU216HW,2013-03-26 08:41:00,
2013-03-26 02:46:00,32.2,12.2,29.97,ENE,68,1.8,2.5,43,0.00,,,0.00,WUHU216HW,2013-03-26 08:46:00,
2013-03-26 02:51:00,32.0,12.4,29.96,NE,45,2.7,2.9,44,0.00,,,0.00,WUHU216HW,2013-03-26 08:51:00,
2013-03-26 02:56:00,32.2,12.6,29.97,East,90,1.6,2.9,44,0.00,,,0.00,WUHU216HW,2013-03-26 08:56:00,
2013-03-26 03:01:00,32.2,12.6,29.96,NE,45,2.9,3.6,44,0.00,,,0.00,WUHU216HW,2013-03-26 09:01:00,
2013-03-26 03:05:00,32.4,13.3,29.96,NNE,23,2.9,3.6,45,0.00,,,0.00,WUHU216HW,2013-03-26 09:05:00,
2013-03-26 03:10:00,32.2,13.2,29.97,ENE,68,2.7,3.6,45,0.00,,,0.00,WUHU216HW,2013-03-26 09:10:00,
2013-03-26 03:15:00,32.2,12.6,29.97,NE,45,4.0,4.0,44,0.00,,,0.00,WUHU216HW,2013-03-26 09:15:00,
2013-03-26 03:20:00,32.6,13.0,29.96,NE,45,3.6,4.0,44,0.00,,,0.00,WUHU216HW,2013-03-26 09:20:00,
2013-03-26 03:25:00,32.9,12.8,29.96,ESE,113,2.2,5.6,43,0.00,,,0.00,WUHU216HW,2013-03-26 09:25:00,
2013-03-26 03:30:00,33.5,12.8,29.96,SE,135,3.8,5.6,42,0.00,,,0.00,WUHU216HW,2013-03-26 09:30:00,
2013-03-26 03:36:00,34.2,12.9,29.96,ESE,113,3.1,4.9,41,0.00,,,0.00,WUHU216HW,2013-03-26 09:36:00,
2013-03-26 03:40:00,34.4,13.1,29.96,SE,135,1.3,4.7,41,0.00,,,0.00,WUHU216HW,2013-03-26 09:40:00,
2013-03-26 03:45:00,34.4,13.1,29.96,East,90,3.8,4.7,41,0.00,,,0.00,WUHU216HW,2013-03-26 09:45:00,
2013-03-26 03:50:00,34.4,13.6,29.96,East,90,2.0,4.5,42,0.00,,,0.00,WUHU216HW,2013-03-26 09:50:00,
2013-03-26 03:55:00,34.4,13.6,29.96,ESE,113,3.1,3.8,42,0.00,,,0.00,WUHU216HW,2013-03-26 09:55:00,
2013-03-26 04:01:00,34.2,13.4,29.97,ESE,113,1.3,3.6,42,0.00,,,0.00,WUHU216HW,2013-03-26 10:01:00,
2013-03-26 04:06:00,34.2,13.4,29.97,East,90,1.1,2.7,42,0.00,,,0.00,WUHU216HW,2013-03-26 10:06:00,
2013-03-26 04:10:00,34.2,13.4,29.96,East,90,3.4,3.4,42,0.00,,,0.00,WUHU216HW,2013-03-26 10:10:00,
2013-03-26 04:15:00,34.4,13.1,29.96,ESE,113,0.7,4.3,41,0.00,,,0.00,WUHU216HW,2013-03-26 10:15:00,
2013-03-26 04:21:00,34.4,13.6,29.96,SE,135,4.0,4.3,42,0.00,,,0.00,WUHU216HW,2013-03-26 10:21:00,
2013-03-26 04:26:00,34.4,13.6,29.97,SSE,158,3.4,4.0,42,0.00,,,0.00,WUHU216HW,2013-03-26 10:26:00,
2013-03-26 04:31:00,34.4,13.6,29.97,SE,135,0.9,3.4,42,0.00,,,0.00,WUHU216HW,2013-03-26 10:31:00,
2013-03-26 04:36:00,34.2,13.4,29.97,SSW,203,0.7,2.5,42,0.00,,,0.00,WUHU216HW,2013-03-26 10:36:00,
2013-03-26 04:41:00,34.2,12.9,29.97,West,270,0.4,1.8,41,0.00,,,0.00,WUHU216HW,2013-03-26 10:41:00,
2013-03-26 04:46:00,34.2,12.9,29.97,SSE,158,2.0,2.0,41,0.00,,,0.00,WUHU216HW,2013-03-26 10:46:00,
2013-03-26 04:51:00,34.2,13.4,29.97,ESE,113,3.1,3.1,42,0.00,,,0.00,WUHU216HW,2013-03-26 10:51:00,
2013-03-26 04:56:00,34.0,13.2,29.97,ESE,113,2.2,3.1,42,0.00,,,0.00,WUHU216HW,2013-03-26 10:56:00,
2013-03-26 05:01:00,34.0,12.7,29.97,East,90,2.9,2.9,41,0.00,,,0.00,WUHU216HW,2013-03-26 11:01:00,
2013-03-26 05:06:00,34.2,12.9,29.96,SE,135,2.5,2.9,41,0.00,,,0.00,WUHU216HW,2013-03-26 11:06:00,
2013-03-26 05:11:00,34.2,12.9,29.96,SE,135,1.8,2.5,41,0.00,,,0.00,WUHU216HW,2013-03-26 11:11:00,
2013-03-26 05:16:00,34.2,12.9,29.96,SE,135,4.0,4.5,41,0.00,,,0.00,WUHU216HW,2013-03-26 11:16:00,
2013-03-26 05:21:00,34.2,12.9,29.96,SE,135,2.5,4.9,41,0.00,,,0.00,WUHU216HW,2013-03-26 11:21:00,
2013-03-26 05:26:00,34.2,12.9,29.97,SSE,158,1.6,4.9,41,0.00,,,0.00,WUHU216HW,2013-03-26 11:26:00,
2013-03-26 05:31:00,34.2,13.4,29.97,South,180,0.0,1.8,42,0.00,,,0.00,WUHU216HW,2013-03-26 11:31:00,
2013-03-26 05:36:00,34.0,12.7,29.97,South,180,0.2,1.1,41,0.00,,,0.00,WUHU216HW,2013-03-26 11:36:00,
2013-03-26 05:41:00,33.8,13.1,29.97,South,180,0.0,0.4,42,0.00,,,0.00,WUHU216HW,2013-03-26 11:41:00,
2013-03-26 05:46:00,33.8,13.1,29.97,South,180,0.0,0.0,42,0.00,,,0.00,WUHU216HW,2013-03-26 11:46:00,
2013-03-26 05:51:00,33.7,12.9,29.97,South,180,0.0,0.0,42,0.00,,,0.00,WUHU216HW,2013-03-26 11:51:00,
2013-03-26 05:56:00,33.5,12.2,29.97,ESE,113,1.1,1.1,41,0.00,,,0.00,WUHU216HW,2013-03-26 11:56:00,
2013-03-26 06:01:00,33.5,12.8,29.97,East,90,1.8,1.8,42,0.00,,,0.00,WUHU216HW,2013-03-26 12:01:00,
2013-03-26 06:06:00,33.5,13.2,29.97,SE,135,1.1,4.3,43,0.00,,,0.00,WUHU216HW,2013-03-26 12:06:00,
2013-03-26 06:11:00,33.5,12.8,29.97,ESE,113,1.6,4.3,42,0.00,,,0.00,WUHU216HW,2013-03-26 12:11:00,
2013-03-26 06:16:00,33.8,13.1,29.97,ESE,113,2.0,2.9,42,0.00,,,0.00,WUHU216HW,2013-03-26 12:16:00,
2013-03-26 06:21:00,33.8,13.1,29.97,ESE,113,1.1,2.9,42,0.00,,,0.00,WUHU216HW,2013-03-26 12:21:00,
2013-03-26 06:26:00,33.8,13.1,29.97,East,90,1.3,1.8,42,0.00,,,0.00,WUHU216HW,2013-03-26 12:26:00,
2013-03-26 06:31:00,33.8,12.6,29.96,SSE,158,0.0,1.6,41,0.00,,,0.00,WUHU216HW,2013-03-26 12:31:00,
2013-03-26 06:36:00,33.7,12.4,29.97,East,90,1.8,2.7,41,0.00,,,0.00,WUHU216HW,2013-03-26 12:36:00,
2013-03-26 06:41:00,33.5,12.2,29.96,NNE,23,0.4,2.7,41,0.00,,,0.00,WUHU216HW,2013-03-26 12:41:00,
2013-03-26 06:46:00,33.1,12.4,29.96,NE,45,2.2,2.5,42,0.00,,,0.00,WUHU216HW,2013-03-26 12:46:00,
2013-03-26 06:51:00,32.8,12.1,29.96,NNE,23,1.8,2.5,42,0.00,,,0.00,WUHU216HW,2013-03-26 12:51:00,
2013-03-26 06:55:00,32.8,12.6,29.96,North,0,0.7,1.8,43,0.00,,,0.00,WUHU216HW,2013-03-26 12:55:00,
2013-03-26 07:00:00,32.8,12.1,29.96,North,0,0.0,1.8,42,0.00,,,0.00,WUHU216HW,2013-03-26 13:00:00,
2013-03-26 07:05:00,32.6,12.0,29.96,West,270,1.1,1.1,42,0.00,,,0.00,WUHU216HW,2013-03-26 13:05:00,
2013-03-26 07:10:00,32.4,12.2,29.97,WNW,293,0.0,1.1,43,0.00,,,0.00,WUHU216HW,2013-03-26 13:10:00,
2013-03-26 07:15:00,32.4,12.2,29.97,WNW,293,0.0,0.4,43,0.00,,,0.00,WUHU216HW,2013-03-26 13:15:00,
2013-03-26 07:20:00,32.4,12.8,29.97,WNW,293,0.0,0.0,44,0.00,,,0.00,WUHU216HW,2013-03-26 13:20:00,
2013-03-26 07:25:00,32.4,12.8,29.97,NNE,23,1.1,1.1,44,0.00,,,0.00,WUHU216HW,2013-03-26 13:25:00,
2013-03-26 07:30:00,32.2,12.6,29.97,ENE,68,1.1,1.6,44,0.00,,,0.00,WUHU216HW,2013-03-26 13:30:00,
2013-03-26 07:35:00,32.2,13.2,29.97,NE,45,1.6,2.0,45,0.00,,,0.00,WUHU216HW,2013-03-26 13:35:00,
2013-03-26 07:40:00,32.0,13.5,29.97,NE,45,2.2,2.5,46,0.00,,,0.00,WUHU216HW,2013-03-26 13:40:00,
2013-03-26 07:45:00,32.0,14.0,29.97,ENE,68,0.4,2.5,47,0.00,,,0.00,WUHU216HW,2013-03-26 13:45:00,
2013-03-26 07:50:00,32.2,14.1,29.98,ENE,68,0.0,1.8,47,0.00,,,0.00,WUHU216HW,2013-03-26 13:50:00,
2013-03-26 07:55:00,32.4,14.3,29.97,East,90,0.7,1.8,47,0.00,,,0.00,WUHU216HW,2013-03-26 13:55:00,
2013-03-26 08:00:00,32.6,14.5,29.98,East,90,1.8,1.8,47,0.00,,,0.00,WUHU216HW,2013-03-26 14:00:00,
2013-03-26 08:06:00,32.8,14.6,29.98,ENE,68,1.6,2.0,47,0.00,,,0.00,WUHU216HW,2013-03-26 14:06:00,
2013-03-26 08:10:00,32.9,14.3,29.98,East,90,1.3,2.0,46,0.00,,,0.00,WUHU216HW,2013-03-26 14:10:00,
2013-03-26 08:16:00,33.1,14.4,29.98,East,90,0.2,1.8,46,0.00,,,0.00,WUHU216HW,2013-03-26 14:16:00,
2013-03-26 08:20:00,33.5,14.8,29.98,East,90,0.0,0.7,46,0.00,,,0.00,WUHU216HW,2013-03-26 14:20:00,
2013-03-26 08:25:00,33.7,15.0,29.98,East,90,0.0,0.0,46,0.00,,,0.00,WUHU216HW,2013-03-26 14:25:00,
2013-03-26 08:30:00,34.0,15.3,29.98,East,90,0.4,0.4,46,0.00,,,0.00,WUHU216HW,2013-03-26 14:30:00,
2013-03-26 08:35:00,34.2,15.4,29.98,East,90,0.0,0.7,46,0.00,,,0.00,WUHU216HW,2013-03-26 14:35:00,
2013-03-26 08:40:00,34.6,15.8,29.98,East,90,0.0,0.7,46,0.00,,,0.00,WUHU216HW,2013-03-26 14:40:00,
2013-03-26 08:45:00,35.1,16.3,29.98,SSE,158,1.1,1.1,46,0.00,,,0.00,WUHU216HW,2013-03-26 14:45:00,
2013-03-26 08:50:00,35.5,16.1,29.98,SSE,158,0.0,1.1,45,0.00,,,0.00,WUHU216HW,2013-03-26 14:50:00,
2013-03-26 08:55:00,35.8,16.5,29.98,SSW,203,1.1,1.1,45,0.00,,,0.00,WUHU216HW,2013-03-26 14:55:00,
2013-03-26 09:00:00,36.2,16.3,29.98,West,270,2.9,2.9,44,0.00,,,0.00,WUHU216HW,2013-03-26 15:00:00,
2013-03-26 09:05:00,36.4,16.4,29.98,NW,315,1.3,2.9,44,0.00,,,0.00,WUHU216HW,2013-03-26 15:05:00,
2013-03-26 09:10:00,36.9,16.4,29.98,WNW,293,0.0,2.7,43,0.00,,,0.00,WUHU216HW,2013-03-26 15:10:00,
2013-03-26 09:15:00,37.6,17.0,29.98,South,180,1.6,1.6,43,0.00,,,0.00,WUHU216HW,2013-03-26 15:15:00,
2013-03-26 09:20:00,38.3,17.2,29.98,SSE,158,0.7,2.2,42,0.00,,,0.00,WUHU216HW,2013-03-26 15:20:00,
2013-03-26 09:25:00,38.9,17.1,29.98,WSW,248,0.7,2.2,41,0.00,,,0.00,WUHU216HW,2013-03-26 15:25:00,
2013-03-26 09:30:00,39.1,17.3,29.98,WSW,248,0.9,1.8,41,0.00,,,0.00,WUHU216HW,2013-03-26 15:30:00,
2013-03-26 09:35:00,39.6,17.7,29.97,SSE,158,1.1,2.7,41,0.00,,,0.00,WUHU216HW,2013-03-26 15:35:00,
2013-03-26 09:40:00,40.3,17.9,29.97,SSW,203,0.0,2.7,40,0.00,,,0.00,WUHU216HW,2013-03-26 15:40:00,
2013-03-26 09:45:00,41.0,19.1,29.97,South,180,5.4,5.4,41,0.00,,,0.00,WUHU216HW,2013-03-26 15:45:00,
2013-03-26 09:50:00,41.8,19.2,29.97,SSE,158,6.0,6.9,40,0.00,,,0.00,WUHU216HW,2013-03-26 15:50:00,
2013-03-26 09:55:00,42.3,19.7,29.97,SSE,158,4.9,8.5,40,0.00,,,0.00,WUHU216HW,2013-03-26 15:55:00,
2013-03-26 10:00:00,42.7,20.0,29.97,SSE,158,5.4,8.5,40,0.00,,,0.00,WUHU216HW,2013-03-26 16:00:00,
2013-03-26 10:05:00,43.4,20.0,29.97,SSW,203,4.5,9.4,39,0.00,,,0.00,WUHU216HW,2013-03-26 16:05:00,
2013-03-26 10:10:00,43.9,19.8,29.97,SSE,158,6.3,9.4,38,0.00,,,0.00,WUHU216HW,2013-03-26 16:10:00,
2013-03-26 10:15:00,44.5,20.3,29.97,SSE,158,7.2,8.1,38,0.00,,,0.00,WUHU216HW,2013-03-26 16:15:00,
2013-03-26 10:20:00,44.6,19.8,29.97,SSW,203,8.5,8.5,37,0.00,,,0.00,WUHU216HW,2013-03-26 16:20:00,
2013-03-26 10:25:00,45.0,20.8,29.97,SSW,203,5.8,8.9,38,0.00,,,0.00,WUHU216HW,2013-03-26 16:25:00,
2013-03-26 10:30:00,45.4,20.4,29.97,South,180,6.0,8.9,37,0.00,,,0.00,WUHU216HW,2013-03-26 16:30:00,
2013-03-26 10:35:00,45.7,20.8,29.97,South,180,7.8,8.1,37,0.00,,,0.00,WUHU216HW,2013-03-26 16:35:00,
2013-03-26 10:40:00,45.5,20.6,29.97,SSE,158,8.5,8.5,37,0.00,,,0.00,WUHU216HW,2013-03-26 16:40:00,
2013-03-26 10:45:00,45.5,21.2,29.97,SSW,203,7.6,8.5,38,0.00,,,0.00,WUHU216HW,2013-03-26 16:45:00,
2013-03-26 10:50:00,45.7,21.4,29.97,SE,135,7.4,8.7,38,0.00,,,0.00,WUHU216HW,2013-03-26 16:50:00,
2013-03-26 10:55:00,45.7,20.8,29.97,SSE,158,6.9,8.7,37,0.00,,,0.00,WUHU216HW,2013-03-26 16:55:00,
2013-03-26 11:00:00,46.1,21.8,29.97,South,180,5.8,7.2,38,0.00,,,0.00,WUHU216HW,2013-03-26 17:00:00,
2013-03-26 11:05:00,46.4,21.4,29.97,SSW,203,5.6,9.8,37,0.00,,,0.00,WUHU216HW,2013-03-26 17:05:00,
2013-03-26 11:10:00,46.4,21.4,29.96,SSE,158,4.7,9.8,37,0.00,,,0.00,WUHU216HW,2013-03-26 17:10:00,
2013-03-26 11:15:00,46.4,21.4,29.97,SSE,158,9.4,9.4,37,0.00,,,0.00,WUHU216HW,2013-03-26 17:15:00,
2013-03-26 11:20:00,46.4,20.7,29.96,SSE,158,5.4,9.4,36,0.00,,,0.00,WUHU216HW,2013-03-26 17:20:00,
2013-03-26 11:25:00,46.6,20.9,29.96,ESE,113,7.4,7.6,36,0.00,,,0.00,WUHU216HW,2013-03-26 17:25:00,
2013-03-26 11:30:00,46.6,20.9,29.96,SSE,158,8.1,8.1,36,0.00,,,0.00,WUHU216HW,2013-03-26 17:30:00,
2013-03-26 11:35:00,47.2,22.7,29.96,SSE,158,5.4,9.2,38,0.00,,,0.00,WUHU216HW,2013-03-26 17:35:00,
2013-03-26 11:40:00,47.5,22.4,29.96,ESE,113,4.7,9.2,37,0.00,,,0.00,WUHU216HW,2013-03-26 17:40:00,
2013-03-26 11:45:00,47.7,22.5,29.95,SSE,158,6.3,6.3,37,0.00,,,0.00,WUHU216HW,2013-03-26 17:45:00,
2013-03-26 11:50:00,48.1,22.2,29.95,SSW,203,4.9,7.6,36,0.00,,,0.00,WUHU216HW,2013-03-26 17:50:00,
2013-03-26 11:55:00,48.6,22.7,29.95,South,180,7.6,9.6,36,0.00,,,0.00,WUHU216HW,2013-03-26 17:55:00,
2013-03-26 12:00:00,49.0,22.3,29.95,SE,135,4.0,9.6,35,0.00,,,0.00,WUHU216HW,2013-03-26 18:00:00,
2013-03-26 12:05:00,49.5,21.4,29.95,SSW,203,3.6,9.6,33,0.00,,,0.00,WUHU216HW,2013-03-26 18:05:00,
2013-03-26 12:10:00,50.2,22.7,29.95,SE,135,7.8,9.6,34,0.00,,,0.00,WUHU216HW,2013-03-26 18:10:00,
2013-03-26 12:15:00,50.9,22.7,29.95,SSE,158,4.9,9.2,33,0.00,,,0.00,WUHU216HW,2013-03-26 18:15:00,
2013-03-26 12:20:00,51.8,22.2,29.95,ESE,113,5.1,15.0,31,0.00,,,0.00,WUHU216HW,2013-03-26 18:20:00,
2013-03-26 12:25:00,52.2,22.4,29.94,SE,135,2.5,15.0,31,0.00,,,0.00,WUHU216HW,2013-03-26 18:25:00,
2013-03-26 12:30:00,52.4,21.9,29.95,SE,135,3.4,7.6,30,0.00,,,0.00,WUHU216HW,2013-03-26 18:30:00,
2013-03-26 12:35:00,52.4,22.6,29.94,East,90,3.1,7.6,31,0.00,,,0.00,WUHU216HW,2013-03-26 18:35:00,
2013-03-26 12:40:00,52.6,21.2,29.94,SE,135,4.7,7.6,29,0.00,,,0.00,WUHU216HW,2013-03-26 18:40:00,
2013-03-26 12:45:00,52.9,22.4,29.94,SSE,158,5.4,7.6,30,0.00,,,0.00,WUHU216HW,2013-03-26 18:45:00,
2013-03-26 12:50:00,52.9,21.4,29.94,SSW,203,9.2,13.4,29,0.00,,,0.00,WUHU216HW,2013-03-26 18:50:00,
2013-03-26 12:55:00,52.0,19.7,29.94,West,270,3.8,13.4,28,0.00,,,0.00,WUHU216HW,2013-03-26 18:55:00,
2013-03-26 13:00:00,51.1,19.8,29.94,WSW,248,4.0,7.8,29,0.00,,,0.00,WUHU216HW,2013-03-26 19:00:00,
2013-03-26 13:05:00,51.1,20.8,29.94,NNW,338,1.8,7.8,30,0.00,,,0.00,WUHU216HW,2013-03-26 19:05:00,
2013-03-26 13:10:00,51.7,20.4,29.94,WSW,248,5.1,5.1,29,0.00,,,0.00,WUHU216HW,2013-03-26 19:10:00,
2013-03-26 13:15:00,51.8,19.5,29.94,SSW,203,5.1,5.6,28,0.00,,,0.00,WUHU216HW,2013-03-26 19:15:00,
2013-03-26 13:20:00,52.2,21.8,29.94,SSE,158,3.8,5.6,30,0.00,,,0.00,WUHU216HW,2013-03-26 19:20:00,
2013-03-26 13:25:00,52.6,21.2,29.94,SE,135,2.5,7.2,29,0.00,,,0.00,WUHU216HW,2013-03-26 19:25:00,
2013-03-26 13:31:00,52.4,20.0,29.94,SSE,158,2.5,7.2,28,0.00,,,0.00,WUHU216HW,2013-03-26 19:31:00,
2013-03-26 13:36:00,52.2,20.8,29.94,NE,45,1.8,6.9,29,0.00,,,0.00,WUHU216HW,2013-03-26 19:36:00,
2013-03-26 13:41:00,51.7,18.5,29.94,NNW,338,4.0,6.3,27,0.00,,,0.00,WUHU216HW,2013-03-26 19:41:00,
2013-03-26 13:46:00,50.4,19.2,29.93,North,0,2.5,6.3,29,0.00,,,0.00,WUHU216HW,2013-03-26 19:46:00,
2013-03-26 13:51:00,50.4,20.2,29.93,SSE,158,4.7,4.7,30,0.00,,,0.00,WUHU216HW,2013-03-26 19:51:00,
2013-03-26 13:56:00,51.5,21.1,29.93,SE,135,4.3,5.6,30,0.00,,,0.00,WUHU216HW,2013-03-26 19:56:00,
2013-03-26 14:02:00,52.2,21.8,29.93,ESE,113,4.7,6.0,30,0.00,,,0.00,WUHU216HW,2013-03-26 20:02:00,
2013-03-26 14:07:00,52.7,19.4,29.93,WNW,293,2.5,6.0,27,0.00,,,0.00,WUHU216HW,2013-03-26 20:07:00,
2013-03-26 14:12:00,52.2,20.8,29.93,SE,135,4.3,5.4,29,0.00,,,0.00,WUHU216HW,2013-03-26 20:12:00,
2013-03-26 14:17:00,52.9,21.4,29.93,SSW,203,0.4,5.4,29,0.00,,,0.00,WUHU216HW,2013-03-26 20:17:00,
2013-03-26 14:22:00,53.6,22.1,29.92,SSW,203,3.8,10.7,29,0.00,,,0.00,WUHU216HW,2013-03-26 20:22:00,
2013-03-26 14:27:00,54.5,21.0,29.93,East,90,3.4,10.7,27,0.00,,,0.00,WUHU216HW,2013-03-26 20:27:00,
2013-03-26 14:32:00,54.7,21.1,29.92,East,90,6.7,8.7,27,0.00,,,0.00,WUHU216HW,2013-03-26 20:32:00,
2013-03-26 14:37:00,54.5,21.0,29.92,East,90,8.1,8.1,27,0.00,,,0.00,WUHU216HW,2013-03-26 20:37:00,
2013-03-26 14:42:00,55.1,21.3,29.92,NE,45,4.7,10.5,27,0.00,,,0.00,WUHU216HW,2013-03-26 20:42:00,
2013-03-26 14:47:00,54.9,19.4,29.92,ESE,113,1.1,10.5,25,0.00,,,0.00,WUHU216HW,2013-03-26 20:47:00,
2013-03-26 14:52:00,55.1,21.3,29.92,WSW,248,4.9,7.6,27,0.00,,,0.00,WUHU216HW,2013-03-26 20:52:00,
2013-03-26 14:57:00,54.5,21.0,29.92,SW,225,8.9,12.8,27,0.00,,,0.00,WUHU216HW,2013-03-26 20:57:00,
2013-03-26 15:02:00,54.0,18.5,29.92,SSE,158,6.9,12.8,25,0.00,,,0.00,WUHU216HW,2013-03-26 21:02:00,
2013-03-26 15:07:00,53.3,18.0,29.92,North,0,0.7,7.8,25,0.00,,,0.00,WUHU216HW,2013-03-26 21:07:00,
2013-03-26 15:12:00,52.9,19.5,29.92,WNW,293,0.4,5.8,27,0.00,,,0.00,WUHU216HW,2013-03-26 21:12:00,
2013-03-26 15:17:00,53.1,20.7,29.92,ESE,113,5.1,5.4,28,0.00,,,0.00,WUHU216HW,2013-03-26 21:17:00,
2013-03-26 15:22:00,53.3,20.8,29.91,SE,135,6.9,9.8,28,0.00,,,0.00,WUHU216HW,2013-03-26 21:22:00,
2013-03-26 15:27:00,52.9,20.5,29.92,ESE,113,1.8,9.8,28,0.00,,,0.00,WUHU216HW,2013-03-26 21:27:00,
2013-03-26 15:37:00,53.6,21.2,29.91,ESE,113,3.1,8.7,28,0.00,,,0.00,WUHU216HW,2013-03-26 21:37:00,
2013-03-26 15:42:00,54.9,22.1,29.91,SSE,158,0.0,6.9,28,0.00,,,0.00,WUHU216HW,2013-03-26 21:42:00,
2013-03-26 15:47:00,54.5,21.0,29.91,ESE,113,1.1,4.0,27,0.00,,,0.00,WUHU216HW,2013-03-26 21:47:00,
2013-03-26 15:52:00,54.2,20.6,29.91,SE,135,4.3,5.4,27,0.00,,,0.00,WUHU216HW,2013-03-26 21:52:00,
2013-03-26 15:57:00,54.4,21.7,29.91,South,180,6.0,6.3,28,0.00,,,0.00,WUHU216HW,2013-03-26 21:57:00,
2013-03-26 16:02:00,54.9,22.1,29.91,ESE,113,0.9,6.3,28,0.00,,,0.00,WUHU216HW,2013-03-26 22:02:00,
2013-03-26 16:07:00,54.7,18.3,29.91,WNW,293,2.2,4.0,24,0.00,,,0.00,WUHU216HW,2013-03-26 22:07:00,
2013-03-26 16:12:00,54.2,18.7,29.90,WNW,293,3.4,4.0,25,0.00,,,0.00,WUHU216HW,2013-03-26 22:12:00,
2013-03-26 16:17:00,54.2,19.7,29.90,NW,315,2.5,4.0,26,0.00,,,0.00,WUHU216HW,2013-03-26 22:17:00,
2013-03-26 16:22:00,53.8,18.5,29.90,North,0,5.6,5.6,25,0.00,,,0.00,WUHU216HW,2013-03-26 22:22:00,
2013-03-26 16:28:00,53.5,18.1,29.90,East,90,3.4,6.5,25,0.00,,,0.00,WUHU216HW,2013-03-26 22:28:00,
2013-03-26 16:33:00,53.6,18.3,29.90,West,270,4.7,6.5,25,0.00,,,0.00,WUHU216HW,2013-03-26 22:33:00,
2013-03-26 16:37:00,53.6,18.3,29.90,ENE,68,2.5,5.4,25,0.00,,,0.00,WUHU216HW,2013-03-26 22:37:00,
2013-03-26 16:42:00,53.6,18.3,29.90,WNW,293,6.5,9.8,25,0.00,,,0.00,WUHU216HW,2013-03-26 22:42:00,
2013-03-26 16:47:00,53.6,17.3,29.90,WNW,293,6.0,9.8,24,0.00,,,0.00,WUHU216HW,2013-03-26 22:47:00,
2013-03-26 16:52:00,53.3,17.0,29.90,NNW,338,3.4,7.8,24,0.00,,,0.00,WUHU216HW,2013-03-26 22:52:00,
2013-03-26 16:58:00,53.1,17.8,29.90,North,0,2.5,7.8,25,0.00,,,0.00,WUHU216HW,2013-03-26 22:58:00,
2013-03-26 17:03:00,53.1,17.8,29.90,North,0,2.5,6.7,25,0.00,,,0.00,WUHU216HW,2013-03-26 23:03:00,
2013-03-26 17:08:00,53.1,17.8,29.90,NNW,338,4.7,5.1,25,0.00,,,0.00,WUHU216HW,2013-03-26 23:08:00,
2013-03-26 17:13:00,53.1,17.8,29.90,WSW,248,6.5,6.5,25,0.00,,,0.00,WUHU216HW,2013-03-26 23:13:00,
2013-03-26 17:18:00,53.1,17.8,29.90,NW,315,1.3,6.5,25,0.00,,,0.00,WUHU216HW,2013-03-26 23:18:00,
2013-03-26 17:23:00,53.3,17.0,29.90,NNE,23,0.7,4.0,24,0.00,,,0.00,WUHU216HW,2013-03-26 23:23:00,
2013-03-26 17:28:00,53.6,18.3,29.90,NW,315,2.2,4.0,25,0.00,,,0.00,WUHU216HW,2013-03-26 23:28:00,
2013-03-26 17:33:00,54.0,18.5,29.90,ENE,68,1.8,4.0,25,0.00,,,0.00,WUHU216HW,2013-03-26 23:33:00,
2013-03-26 17:38:00,55.8,22.0,29.90,ENE,68,2.9,4.0,27,0.00,,,0.00,WUHU216HW,2013-03-26 23:38:00,
2013-03-26 17:43:00,59.4,21.3,29.90,East,90,1.3,4.0,23,0.00,,,0.00,WUHU216HW,2013-03-26 23:43:00,
2013-03-26 17:48:00,61.0,22.6,29.90,NNW,338,1.8,2.9,23,0.00,,,0.00,WUHU216HW,2013-03-26 23:48:00,
2013-03-26 17:53:00,63.0,22.3,29.90,SSW,203,2.9,5.4,21,0.00,,,0.00,WUHU216HW,2013-03-26 23:53:00,
2013-03-26 17:58:00,63.4,22.6,29.90,SSE,158,2.5,5.8,21,0.00,,,0.00,WUHU216HW,2013-03-26 23:58:00,
2013-03-26 18:03:00,62.8,21.3,29.90,SW,225,6.5,6.5,20,0.00,,,0.00,WUHU216HW,2013-03-27 00:03:00,
2013-03-26 18:08:00,61.9,21.4,29.90,South,180,1.3,6.5,21,0.00,,,0.00,WUHU216HW,2013-03-27 00:08:00,
2013-03-26 18:13:00,62.6,23.1,29.90,SE,135,3.1,3.1,22,0.00,,,0.00,WUHU216HW,2013-03-27 00:13:00,
2013-03-26 18:18:00,62.8,22.1,29.90,SSE,158,0.0,3.1,21,0.00,,,0.00,WUHU216HW,2013-03-27 00:18:00,
2013-03-26 18:23:00,62.6,23.1,29.90,SW,225,0.9,3.4,22,0.00,,,0.00,WUHU216HW,2013-03-27 00:23:00,
2013-03-26 18:28:00,62.5,19.4,29.90,NNE,23,2.9,3.4,19,0.00,,,0.00,WUHU216HW,2013-03-27 00:28:00,
2013-03-26 18:33:00,60.3,20.1,29.90,ENE,68,4.9,4.9,21,0.00,,,0.00,WUHU216HW,2013-03-27 00:33:00,
2013-03-26 18:38:00,58.0,19.1,29.90,NE,45,3.4,4.9,22,0.00,,,0.00,WUHU216HW,2013-03-27 00:38:00,
2013-03-26 18:43:00,57.6,18.7,29.90,North,0,4.3,4.9,22,0.00,,,0.00,WUHU216HW,2013-03-27 00:43:00,
2013-03-26 18:48:00,56.7,17.1,29.90,North,0,3.6,4.9,21,0.00,,,0.00,WUHU216HW,2013-03-27 00:48:00,
2013-03-26 18:53:00,56.0,17.5,29.91,NE,45,4.7,4.9,22,0.00,,,0.00,WUHU216HW,2013-03-27 00:53:00,
2013-03-26 18:58:00,56.5,18.8,29.90,NE,45,2.7,4.9,23,0.00,,,0.00,WUHU216HW,2013-03-27 00:58:00,
2013-03-26 19:03:00,56.9,18.2,29.90,NNE,23,3.4,3.8,22,0.00,,,0.00,WUHU216HW,2013-03-27 01:03:00,
2013-03-26 19:08:00,56.2,18.6,29.90,NE,45,2.0,3.4,23,0.00,,,0.00,WUHU216HW,2013-03-27 01:08:00,
2013-03-26 19:13:00,54.4,17.9,29.91,NE,45,2.2,3.8,24,0.00,,,0.00,WUHU216HW,2013-03-27 01:13:00,
2013-03-26 19:18:00,52.7,16.6,29.91,NE,45,3.8,3.8,24,0.00,,,0.00,WUHU216HW,2013-03-27 01:18:00,
2013-03-26 19:23:00,51.5,16.5,29.90,ENE,68,2.9,4.0,25,0.00,,,0.00,WUHU216HW,2013-03-27 01:23:00,
2013-03-26 19:28:00,50.8,17.6,29.90,NNE,23,2.2,4.0,27,0.00,,,0.00,WUHU216HW,2013-03-27 01:28:00,
2013-03-26 19:33:00,50.0,17.0,29.91,NNE,23,2.9,3.1,27,0.00,,,0.00,WUHU216HW,2013-03-27 01:33:00,
2013-03-26 19:38:00,48.8,16.9,29.90,NE,45,2.0,2.9,28,0.00,,,0.00,WUHU216HW,2013-03-27 01:38:00,
2013-03-26 19:43:00,47.7,16.9,29.90,NE,45,2.7,2.9,29,0.00,,,0.00,WUHU216HW,2013-03-27 01:43:00,
2013-03-26 19:48:00,46.6,17.6,29.91,ENE,68,3.4,4.7,31,0.00,,,0.00,WUHU216HW,2013-03-27 01:48:00,
2013-03-26 19:53:00,45.7,17.5,29.90,ENE,68,5.4,5.4,32,0.00,,,0.00,WUHU216HW,2013-03-27 01:53:00,
2013-03-26 19:58:00,45.0,17.5,29.91,ENE,68,2.9,5.4,33,0.00,,,0.00,WUHU216HW,2013-03-27 01:58:00,
2013-03-26 20:03:00,44.1,16.7,29.91,NE,45,0.4,4.3,33,0.00,,,0.00,WUHU216HW,2013-03-27 02:03:00,
2013-03-26 20:08:00,43.6,17.5,29.91,North,0,1.1,3.4,35,0.00,,,0.00,WUHU216HW,2013-03-27 02:08:00,
2013-03-26 20:13:00,43.2,15.9,29.91,NNE,23,2.9,2.9,33,0.00,,,0.00,WUHU216HW,2013-03-27 02:13:00,
2013-03-26 20:18:00,42.5,15.8,29.91,ENE,68,2.5,2.9,34,0.00,,,0.00,WUHU216HW,2013-03-27 02:18:00,
2013-03-26 20:23:00,41.8,15.9,29.91,NNE,23,1.8,2.9,35,0.00,,,0.00,WUHU216HW,2013-03-27 02:23:00,
2013-03-26 20:28:00,41.4,15.6,29.91,ESE,113,1.1,2.9,35,0.00,,,0.00,WUHU216HW,2013-03-27 02:28:00,
2013-03-26 20:33:00,40.7,15.7,29.92,East,90,1.8,2.7,36,0.00,,,0.00,WUHU216HW,2013-03-27 02:33:00,
2013-03-26 20:38:00,40.3,15.3,29.92,NE,45,1.1,3.1,36,0.00,,,0.00,WUHU216HW,2013-03-27 02:38:00,
2013-03-26 20:43:00,39.6,15.3,29.92,NE,45,1.6,3.1,37,0.00,,,0.00,WUHU216HW,2013-03-27 02:43:00,
2013-03-26 20:48:00,39.1,15.5,29.92,East,90,1.8,2.9,38,0.00,,,0.00,WUHU216HW,2013-03-27 02:48:00,
2013-03-26 20:53:00,38.9,15.3,29.92,East,90,0.9,2.9,38,0.00,,,0.00,WUHU216HW,2013-03-27 02:53:00,
2013-03-26 20:58:00,38.5,14.9,29.93,East,90,1.3,2.5,38,0.00,,,0.00,WUHU216HW,2013-03-27 02:58:00,
2013-03-26 21:03:00,38.0,14.5,29.93,ESE,113,1.1,1.3,38,0.00,,,0.00,WUHU216HW,2013-03-27 03:03:00,
2013-03-26 21:08:00,37.4,14.7,29.93,ESE,113,1.3,1.6,39,0.00,,,0.00,WUHU216HW,2013-03-27 03:08:00,
2013-03-26 21:13:00,36.9,14.1,29.93,ESE,113,0.7,1.6,39,0.00,,,0.00,WUHU216HW,2013-03-27 03:13:00,
2013-03-26 21:18:00,36.4,15.4,29.93,ENE,68,3.4,3.4,42,0.00,,,0.00,WUHU216HW,2013-03-27 03:18:00,
2013-03-26 21:23:00,36.2,15.8,29.93,ENE,68,2.5,3.4,43,0.00,,,0.00,WUHU216HW,2013-03-27 03:23:00,
2013-03-26 21:28:00,36.2,16.7,29.93,ENE,68,3.8,3.8,45,0.00,,,0.00,WUHU216HW,2013-03-27 03:28:00,
2013-03-26 21:33:00,36.2,16.7,29.93,East,90,2.7,4.0,45,0.00,,,0.00,WUHU216HW,2013-03-27 03:33:00,
2013-03-26 21:38:00,36.4,16.9,29.93,NE,45,1.8,4.0,45,0.00,,,0.00,WUHU216HW,2013-03-27 03:38:00,
2013-03-26 21:43:00,36.4,16.9,29.93,NNE,23,3.4,3.8,45,0.00,,,0.00,WUHU216HW,2013-03-27 03:43:00,
2013-03-26 21:48:00,36.2,16.7,29.94,East,90,1.3,3.8,45,0.00,,,0.00,WUHU216HW,2013-03-27 03:48:00,
2013-03-26 21:53:00,36.0,16.7,29.94,East,90,1.6,3.6,45,0.00,,,0.00,WUHU216HW,2013-03-27 03:53:00,
2013-03-26 21:58:00,36.2,16.7,29.94,ENE,68,1.1,3.4,45,0.00,,,0.00,WUHU216HW,2013-03-27 03:58:00,
2013-03-26 22:00:00,36.2,16.7,29.94,ENE,68,1.6,2.0,45,0.00,,,0.00,WUHU216HW,2013-03-27 04:00:00,
2013-03-26 22:05:00,36.2,16.7,29.94,ENE,68,1.1,1.6,45,0.00,,,0.00,WUHU216HW,2013-03-27 04:05:00,
2013-03-26 22:10:00,36.2,16.7,29.94,ESE,113,1.1,1.6,45,0.00,,,0.00,WUHU216HW,2013-03-27 04:10:00,
2013-03-26 22:15:00,36.0,16.7,29.94,East,90,0.4,1.3,45,0.00,,,0.00,WUHU216HW,2013-03-27 04:15:00,
2013-03-26 22:20:00,35.6,16.8,29.95,East,90,0.2,1.3,46,0.00,,,0.00,WUHU216HW,2013-03-27 04:20:00,
2013-03-26 22:25:00,35.5,16.7,29.94,East,90,0.0,1.6,46,0.00,,,0.00,WUHU216HW,2013-03-27 04:25:00,
2013-03-26 22:30:00,35.5,17.2,29.95,East,90,0.0,1.6,47,0.00,,,0.00,WUHU216HW,2013-03-27 04:30:00,
2013-03-26 22:35:00,35.3,17.0,29.95,East,90,0.9,1.3,47,0.00,,,0.00,WUHU216HW,2013-03-27 04:35:00,
2013-03-26 22:40:00,34.9,16.7,29.95,East,90,0.7,1.3,47,0.00,,,0.00,WUHU216HW,2013-03-27 04:40:00,
2013-03-26 22:45:00,34.9,17.2,29.95,East,90,1.8,1.8,48,0.00,,,0.00,WUHU216HW,2013-03-27 04:45:00,
2013-03-26 22:50:00,34.9,18.2,29.95,ENE,68,2.0,2.0,50,0.00,,,0.00,WUHU216HW,2013-03-27 04:50:00,
2013-03-26 22:55:00,34.9,18.2,29.95,NE,45,1.8,2.2,50,0.00,,,0.00,WUHU216HW,2013-03-27 04:55:00,
2013-03-26 23:00:00,34.9,18.2,29.95,NE,45,0.0,2.2,50,0.00,,,0.00,WUHU216HW,2013-03-27 05:00:00,
2013-03-26 23:05:00,34.6,17.8,29.95,NE,45,0.0,0.4,50,0.00,,,0.00,WUHU216HW,2013-03-27 05:05:00,
2013-03-26 23:10:00,34.2,17.5,29.95,NE,45,1.1,1.1,50,0.00,,,0.00,WUHU216HW,2013-03-27 05:10:00,
2013-03-26 23:15:00,34.0,17.3,29.95,NE,45,1.8,1.8,50,0.00,,,0.00,WUHU216HW,2013-03-27 05:15:00,
2013-03-26 23:20:00,33.5,17.2,29.95,ENE,68,0.4,1.8,51,0.00,,,0.00,WUHU216HW,2013-03-27 05:20:00,
2013-03-26 23:25:00,33.3,17.0,29.95,ENE,68,1.1,1.1,51,0.00,,,0.00,WUHU216HW,2013-03-27 05:25:00,
2013-03-26 23:30:00,33.1,16.9,29.95,ENE,68,0.4,1.1,51,0.00,,,0.00,WUHU216HW,2013-03-27 05:30:00,
2013-03-26 23:35:00,32.8,17.0,29.95,ENE,68,0.4,1.1,52,0.00,,,0.00,WUHU216HW,2013-03-27 05:35:00,
2013-03-26 23:40:00,32.6,17.3,29.95,NE,45,1.1,1.8,53,0.00,,,0.00,WUHU216HW,2013-03-27 05:40:00,
2013-03-26 23:45:00,32.6,17.7,29.95,ENE,68,1.6,2.0,54,0.00,,,0.00,WUHU216HW,2013-03-27 05:45:00,
2013-03-26 23:50:00,32.6,17.7,29.95,East,90,0.9,2.0,54,0.00,,,0.00,WUHU216HW,2013-03-27 05:50:00,
2013-03-26 23:55:00,32.8,17.8,29.95,East,90,0.9,1.8,54,0.00,,,0.00,WUHU216HW,2013-03-27 05:55:00,